User: anonymous   Login
Location: Jasper Marmot Meadows
(52.8392°N, 118.0718°W)
Time: 08:06:28
(UTC-06:00)
Language:

N. Korean satellite - Orbit

View from above orbital plane
View from above orbital plane
View from above satellite
View from above satellite

Ground track
Ground track

The orbit data is extracted from the following two-line orbital elements,

1 39026U 12072A   19111.95940529 +.00001338 +00000-0 +51280-4 0  9993
2 39026 097.2119 116.9833 0036765 308.3138 051.4798 15.27661028352726
Epoch (UTC): 21 April 2019 23:01:32
Eccentricity: 0.0036765
inclination: 97.2119°
perigee height: 457 km
apogee height: 508 km
right ascension of ascending node: 116.9833°
argument of perigee: 308.3138°
revolutions per day: 15.27661028
mean anomaly at epoch: 51.4798°
orbit number at epoch: 35272

The dashed part of the orbit path shows where the satellite is in the earth's shadow,  

DLR